Date,TemperatureHighF,TemperatureAvgF,TemperatureLowF,DewpointHighF,DewpointAvgF,DewpointLowF,HumidityHigh,HumidityAvg,HumidityLow,PressureMaxIn,PressureMinIn,WindSpeedMaxMPH,WindSpeedAvgMPH,GustSpeedMaxMPH,PrecipitationSumIn
2013-10-1,87,72,58,65,59,54,87,65,36,29.84,29.74,26,7,26,0.00
2013-10-2,85,75,65,70,65,60,90,72,53,29.85,29.72,19,7,24,0.00
2013-10-3,90,78,68,69,66,63,95,70,43,29.76,29.60,16,7,29,0.00
2013-10-4,89,78,64,67,64,46,84,64,46,29.87,29.59,15,7,25,0.56
2013-10-5,69,58,49,42,35,30,67,43,24,30.12,29.87,20,5,27,0.00
2013-10-6,77,60,47,43,34,28,66,41,19,30.18,30.04,16,4,23,0.00
2013-10-7,77,62,49,48,44,39,75,54,28,30.17,30.03,6,2,11,0.00
2013-10-8,82,64,48,47,44,41,77,51,25,30.05,29.87,15,4,20,0.00
2013-10-9,81,66,51,52,48,45,83,55,32,29.97,29.85,16,6,27,0.00
2013-10-10,82,70,56,62,56,51,87,64,45,29.93,29.70,19,9,32,0.00
2013-10-11,86,71,58,60,46,31,90,50,15,29.80,29.69,14,4,26,0.00
2013-10-12,74,64,55,50,45,35,64,51,40,30.13,29.81,16,6,25,0.00
2013-10-13,70,62,56,65,57,47,93,81,65,30.24,30.07,14,5,20,0.17
2013-10-14,75,69,65,69,66,64,96,90,79,30.08,29.77,11,6,15,0.14
2013-10-15,69,57,50,67,44,38,96,65,46,30.14,29.82,15,5,24,0.00
2013-10-16,53,49,40,42,39,36,91,69,55,30.21,30.10,12,3,16,0.01
2013-10-17,70,53,37,47,41,35,93,68,33,30.12,29.95,9,2,10,0.00
2013-10-18,57,49,38,50,44,35,94,82,67,30.24,29.91,23,6,27,0.07
2013-10-19,67,48,32,41,35,30,94,66,25,30.26,30.04,10,2,16,0.01
2013-10-20,74,56,38,52,43,35,91,66,36,30.04,29.75,15,4,20,0.00
2013-10-21,64,55,42,50,41,35,84,62,35,30.15,29.84,25,6,28,0.00
2013-10-22,80,58,38,44,39,35,90,57,22,30.15,30.02,14,2,18,0.00
2013-10-23,83,61,42,48,38,32,87,52,18,30.09,29.95,12,2,21,0.00
2013-10-24,62,55,46,48,41,37,89,62,44,30.34,30.05,22,7,28,0.00
2013-10-25,65,52,42,49,41,34,77,66,51,30.43,30.18,16,5,18,0.00
2013-10-26,74,60,51,59,51,40,92,75,49,30.19,30.01,13,4,19,0.00
2013-10-27,72,55,40,48,36,26,84,55,19,30.16,29.94,8,2,11,0.00
2013-10-28,68,59,50,64,58,47,98,94,84,30.02,29.88,20,7,23,0.01
2013-10-29,81,71,65,66,65,63,94,80,56,29.93,29.80,13,5,24,0.00
2013-10-30,78,71,63,68,64,52,95,80,43,29.87,29.64,12,5,29,0.04
2013-10-31,68,60,50,59,44,36,91,59,30,29.81,29.58,29,5,30,0.03